Location: Krasnoyarskiy Pitomnik
(51.1333°N, 71.6167°E)
Time: 00:37:46
(UTC+00:00)

NOSS 2-2 (C) - Pass Details

Date: 29 May 2022
Orbit: 439 x 1763 km, 63.3° (Epoch: 02 June)

Event Time Altitude Azimuth Distance (km) Brightness Sun altitude
Rises 20:13:57 0° 306° (NW) 3,094 7.4 -15.8°
Reaches altitude 10° 20:16:26 10° 291° (WNW) 2,350 6.6 -15.7°
Maximum altitude 20:20:42 24° 240° (WSW) 1,866 5.6 -15.6°
Enters shadow 20:22:37 21° 216° (SW) 2,126 5.7 -15.5°
